Weather History for KEWB - August, 2014

Change the Weather History Date:

Sunday, August 31, 2014

  Actual Average Record
Temperature  
Mean Temperature 71 °F -  
Max Temperature 80 °F 79 °F 96 °F (1973)
Min Temperature 64 °F 62 °F 48 °F (1999)
Cooling Degree Days 6    
Growing Degree Days 21 (Base 50)    
Moisture  
Dew Point 69 °F    
Average Humidity 87    
Maximum Humidity 97    
Minimum Humidity 64    
Precipitation  
Precipitation 0.30 in - - ()
Sea Level Pressure  
Sea Level Pressure 30.04 in    
Wind  
Wind Speed 10 mph (SW)    
Max Wind Speed 18 mph    
Max Gust Speed 28 mph    
Visibility 9 miles    
Events Rain    
Averages and records for this station are not official NWS values.
T = Trace of Precipitation, MM = Missing Value Source: NWS Daily Summary

Daily Weather History Graph

Daily Weather History Graph

Search for Another Location

Airport or City:

Trip Planner

Search our weather history database for the weather conditions in past years. The results will help you decide how hot, cold, wet, or windy it might be!

Date:

Astronomy

Aug. 31, 2014 Rise Set
Actual Time 6:08 AM EDT 7:18 PM EDT
Civil Twilight 5:40 AM EDT 7:47 PM EDT
Nautical Twilight 5:05 AM EDT 8:21 PM EDT
Astronomical Twilight 4:29 AM EDT 8:57 PM EDT
Moon 11:57 AM EDT (8/31) 10:26 PM EDT (8/31)
Length of Visible Light 14h 07m
Length of Day
13h 10m
Waxing Crescent, 32% of the Moon is Illuminated
Aug 31
Waxing Crescent
Sep 2
First Quarter
Sep 8
Full
Sep 15
Last Quarter
Sep 24
New

Hourly Weather History & Observations

Time (EDT) Temp. Dew Point Humidity Pressure Visibility Wind Dir Wind Speed Gust Speed Precip Events Conditions
12:53 AM 64.0 °F 61.0 °F 90% 30.16 in 10.0 mi SSW 3.5 mph - N/A   Partly Cloudy
1:53 AM 64.9 °F 63.0 °F 93% 30.15 in 10.0 mi SSW 4.6 mph - N/A   Overcast
2:53 AM 68.0 °F 64.0 °F 87% 30.14 in 10.0 mi SSW 8.1 mph - N/A   Overcast
3:53 AM 69.1 °F 64.9 °F 87% 30.13 in 10.0 mi SSW 10.4 mph - N/A   Overcast
4:53 AM 69.1 °F 64.9 °F 87% 30.12 in 10.0 mi SSW 8.1 mph - N/A   Overcast
5:53 AM 70.0 °F 64.9 °F 84% 30.12 in 10.0 mi SW 9.2 mph - N/A   Overcast
6:53 AM 71.1 °F 64.9 °F 81% 30.12 in 10.0 mi SW 9.2 mph - N/A   Overcast
7:53 AM 72.0 °F 66.0 °F 81% 30.12 in 10.0 mi SSW 10.4 mph - N/A   Overcast
8:53 AM 75.0 °F 66.9 °F 76% 30.10 in 10.0 mi SW 10.4 mph - N/A   Partly Cloudy
9:53 AM 77.0 °F 64.0 °F 64% 30.09 in 10.0 mi SW 13.8 mph 19.6 mph N/A   Scattered Clouds
10:53 AM 77.0 °F 66.0 °F 69% 30.08 in 10.0 mi WSW 18.4 mph 27.6 mph N/A   Clear
11:21 AM 77.0 °F 66.0 °F 69% 30.08 in 10.0 mi WSW 12.7 mph 21.9 mph N/A   Mostly Cloudy
11:53 AM 78.1 °F 66.9 °F 68% 30.07 in 10.0 mi SW 15.0 mph 21.9 mph N/A   Overcast
12:53 PM 75.9 °F 69.1 °F 79% 30.05 in 10.0 mi SW 16.1 mph 24.2 mph N/A   Overcast
1:53 PM 75.9 °F 70.0 °F 82% 30.04 in 10.0 mi SW 16.1 mph - N/A   Overcast
2:53 PM 78.1 °F 71.1 °F 79% 30.03 in 10.0 mi SW 16.1 mph - N/A   Overcast
3:53 PM 78.1 °F 71.1 °F 79% 30.01 in 10.0 mi SW 13.8 mph 23.0 mph N/A   Mostly Cloudy
4:27 PM 75.2 °F 71.6 °F 89% 30.00 in 10.0 mi SW 13.8 mph - N/A   Mostly Cloudy
4:53 PM 75.9 °F 72.0 °F 87% 30.00 in 10.0 mi SW 13.8 mph - N/A   Mostly Cloudy
5:26 PM 75.9 °F 72.0 °F 87% 30.00 in 10.0 mi SW 11.5 mph 20.7 mph N/A   Overcast
5:53 PM 75.0 °F 72.0 °F 90% 30.01 in 8.0 mi SW 15.0 mph 20.7 mph N/A   Overcast
6:36 PM 73.9 °F 72.0 °F 93% 30.00 in 5.0 mi WSW 11.5 mph - N/A   Overcast
6:53 PM 73.0 °F 72.0 °F 96% 29.99 in 5.0 mi SW 11.5 mph - N/A   Overcast
7:26 PM 73.9 °F 72.0 °F 93% 30.00 in 9.0 mi SW 13.8 mph - N/A   Overcast
7:53 PM 73.9 °F 71.1 °F 91% 29.99 in 10.0 mi SSW 11.5 mph 20.7 mph N/A   Scattered Clouds
8:35 PM 73.0 °F 70.0 °F 90% 30.00 in 10.0 mi SW 13.8 mph 20.7 mph N/A   Mostly Cloudy
8:53 PM 73.9 °F 70.0 °F 87% 30.00 in 10.0 mi SW 12.7 mph - N/A   Overcast
9:53 PM 73.4 °F 71.6 °F 94% 29.99 in 7.0 mi SW 15.0 mph 23.0 mph N/A Rain Light Rain
10:01 PM 73.0 °F 71.1 °F 93% 29.99 in 5.0 mi SW 12.7 mph 23.0 mph 0.01 in Rain Light Rain
10:28 PM 72.0 °F 71.1 °F 97% 29.99 in 1.8 mi SSW 11.5 mph - 0.19 in Rain Heavy Rain
10:33 PM 72.0 °F 71.1 °F 97% 29.99 in 2.0 mi SSW 11.5 mph - 0.19 in Rain Light Rain
10:36 PM 72.0 °F 71.1 °F 97% 29.99 in 4.0 mi SW 10.4 mph - 0.19 in Rain Light Rain
10:44 PM 73.0 °F 71.1 °F 93% 29.99 in 10.0 mi SW 12.7 mph - 0.19 in Rain Light Rain
10:53 PM 73.0 °F 71.1 °F 93% 29.98 in 10.0 mi SW 13.8 mph 21.9 mph 0.20 in Rain Light Rain
11:31 PM 73.4 °F 71.6 °F 94% 29.97 in 10.0 mi SSW 12.7 mph - N/A Rain Light Rain
11:45 PM 73.0 °F 71.1 °F 93% 29.97 in 10.0 mi SSW 13.8 mph 25.3 mph 0.10 in   Overcast
11:53 PM 73.0 °F 71.1 °F 93% 29.97 in 10.0 mi SSW 18.4 mph 23.0 mph 0.10 in   Overcast